WESTFORD NEEDLES, 3255

Orbit data source: Space-Track

WESTFORD NEEDLES, 3255 is space debris in LEO originally from a launch on Thu, 09 May 1963 UTC launched from the Air Force Western Test Range (AFWTR). Debris objects in space refer to the collection of defunct objects orbiting the Earth. Examples of debris include non-operational satellites, rocket bodies, and fragments generated from explosions, collisions, or faulty payload assembly.

Loading next visibility...
Identifier
3255, 1963-014BV
Orbit
LEO
Country
Flag of USUS
Related business
Manufacturer
Unknown
Mission
Spacecraft
Bus & Motor
Unknown
Mass
Unknown
Launch date (UTC)
1963-05-09 (62 years ago)
Launch vehicle
Unknown
Launch site
Air Force Western Test Range (AFWTR)
Object type
Payload
Rocket body
Debris
Shape & HBR
Unknown
Radar Cross Section
Medium (>0.1 m² and <1 m²)

Expand to show TLE details & history
Last TLE update: 1 day ago

TLE from 1 day ago
0 WESTFORD NEEDLES
1 03255U 63014BV  25261.20308274  .00000133  00000-0  59827-1 0  9990
2 03255  87.3593 194.9331 0060557 108.1322 252.6140  8.66752855357852
Epoch: 2025-09-18T04:52Z
TLE epoch observation values (Epoch: 2025-09-18T04:52:26.348Z)
Latitude
-0.00001°
Longitude
124.45526°
Altitude
3,653.368 km
Speed
6.298 km/s
True Right ascension
12h 59m 43s
True Declination
0° 00' 00"
Sunlit
Object was in daylight at epoch
Visualization orbit readout
Latitude
Unknown
Longitude
Unknown
Altitude
Unknown
Speed
Unknown
Apparent Right ascension
Unknown
Apparent Declination
Unknown
Sunlit
N/A
Visualization observer readout
Local Sidereal Time
21:52:42
Azimuth
Unknown
Elevation
Unknown
Doppler factor
Unknown
Orbital elements
Apogee altitude
3,691.159 km
Perigee altitude
3,569.94 km
Semi-major axis
10,008.687 km
Eccentricity
0.00606
Inclination
87.3593°
RAAN
194.9331°
Arg. of periapsis
108.1322°
True anomaly
251.95328°
Mean anomaly
252.614°
Eccentric anomaly
252.28349°
Mean motion
2.16759 °/min
Orbital period
166.08 mins
BSTAR
0.059827
Loading maneuver chart data...
Computing Atmospheric mass density...

Documentation

Showing up to 5 results
|